Regional Weather Roundup
Issued by NWS

Home | Current Version | Previous Version | Text Only | Print | Product List | Glossary On
Versions: 1 2 3 4 5 6 7 8 9 10 11 12 13 14 15 16 17 18 19 20 21 22 23 24 25 26 27 28 29 30 31 32 33 34 35 36 37 38 39 40 41 42 43 44 45 46 47 48 49 50
000
ASUS43 KMKX 250500
RWRWI

WISCONSIN REGIONAL WEATHER ROUNDUP
NATIONAL WEATHER SERVICE MILWAUKEE/SULLIVAN WI
1100 PM CST FRI FEB 24 2017

NOTE: "FAIR" INDICATES FEW OR NO CLOUDS BELOW 12,000 FEET WITH NO
SIGNIFICANT WEATHER AND/OR OBSTRUCTIONS TO VISIBILITY.

WIZ001-002-006>008-014>016-023>028-250600-
NORTHWEST WISCONSIN

CITY           SKY/WX    TMP DP  RH WIND       PRES   REMARKS
SUPERIOR ARPT  CLOUDY    18   6  59 N8G16     29.91S WCI   8
ASHLAND        CLOUDY    20   7  57 N13       29.83F WCI   7
HAYWARD        CLOUDY    19   5  54 N13G22    29.80F WCI   6
SIREN          CLOUDY    19   6  56 N14G20    29.87S WCI   6
CUMBERLAND     CLOUDY    19   9  63 N17G25    29.80F WCI   4
RICE LAKE      CLOUDY    20   9  61 N7G20     29.82F WCI  11
CHETEK         CLOUDY    19  11  72 N8        29.80F WCI   8
LADYSMITH      LGT SNOW  17  13  86 N9        29.78F WCI   6
EAU CLAIRE     LGT SNOW  18  14  84 N6        29.79F FOG     WCI  10
MENOMONIE      CLOUDY    21  14  75 NW14      29.81F WCI   8
NEW RICHMOND   MOCLDY    21   9  59 N22       29.85S WCI   5
OSCEOLA        PTCLDY    22   9  58 N15G23    29.90S WCI   8
$$

WIZ003>005-009-010-017-018-250600-
NORTH CENTRAL WISCONSIN

CITY           SKY/WX    TMP DP  RH WIND       PRES   REMARKS
MANITOWISH WTR LGT SNOW  15  14  96 N6G16     29.70S WCI   6
ARBOR VITAE    LGT SNOW  17  14  88 N17G24      N/A  WCI   1
WOODRUFF       LGT SNOW  17  14  88 N17G24      N/A  WCI   1
RHINELANDER    LGT SNOW  17  14  88 N9G16     29.64F VSB 1   WCI   6
EAGLE RIVER    LGT SNOW  17  12  83 N10G18    29.64F VSB 1   WCI   4
LAND O LAKES   LGT SNOW  17  13  86 N10G20    29.67F WCI   5
PHILLIPS       LGT SNOW  15  13  90 N6        29.71F WCI   6
TOMAHAWK       LGT SNOW  16  13  88 NW8       29.67F WCI   5
MEDFORD        LGT SNOW  16  12  86 NW15      29.67F WCI   1
MERRILL        NOT AVBL
$$

WIZ029-030-035-036-043>047-250600-
CENTRAL WISCONSIN

CITY           SKY/WX    TMP DP  RH WIND       PRES   REMARKS
WAUSAU         LGT SNOW  18  14  84 NW14G20   29.64S FOG     WCI   4
MOSINEE        LGT SNOW  19  18  93 N13       29.66S WCI   7
MARSHFIELD     LGT SNOW  18  13  80 N15       29.67S WCI   4
STEVENS POINT  FLURRIES  18  14  83 N13G21    29.66S WCI   5
WAUPACA        CLOUDY    23  18  81 NW8       29.65R WCI  14
WAUTOMA        FLURRIES  20  17  88 N9G17     29.66S WCI   9
WISC RAPIDS    LGT SNOW  20  16  84 N13       29.67F FOG     WCI   7
CAMP DOUGLAS   NOT AVBL
$$

WIZ011>013-019>022-031-037>040-048>050-250600-
NORTHEAST WISCONSIN

CITY           SKY/WX    TMP DP  RH WIND       PRES   REMARKS
ANTIGO         LGT SNOW  17  13  86 N16       29.61S WCI   1
SHAWANO        CLOUDY    23  19  85 CALM      29.62S
OCONTO         CLOUDY    22  19  90 N9        29.58F WCI  12
STURGEON BAY   MIX PCPN  24  22  91 MISG      29.55S FOG
GREEN BAY      CLOUDY    23  22  96 NW12G23   29.59S WCI  12
MANITOWOC      NOT AVBL
APPLETON       CLOUDY    21  21 100 NW8       29.59R FOG     WCI  12
CLINTONVILLE   CLOUDY    23  18  80 N7        29.62S WCI  15
OSHKOSH        FRZ RAIN  23  20  88 NW16      29.60S FOG     WCI  10
$$

WIZ032>034-041-042-053>061-250600-
SOUTHWEST WISCONSIN

CITY           SKY/WX    TMP DP  RH WIND       PRES   REMARKS
LA CROSSE      CLOUDY    21  15  78 N21G28    29.78S HAZE    WCI   5
SPARTA         LGT SNOW  19  16  88 NW13G21   29.74S WCI   6
VIROQUA        CLOUDY    19  15  88 N10       29.70R WCI   7
BOSCOBEL       LGT SNOW  24  18  77 NW9       29.73R WCI  14
PRAIRIE DU CHI LGT SNOW  22  19  87 NW16G22   29.75R WCI   9
PLATTEVILLE    CLOUDY    25  23  91 N10       29.68R WCI  15
$$

WIZ056-057-062-063-064-067-068-250600-
SOUTH CENTRAL WISCONSIN

CITY           SKY/WX    TMP DP  RH WIND       PRES   REMARKS
REEDSBURG      LGT SNOW  22  19  88 NW13      29.67S WCI   9
BARABOO/DELLS  LGT SNOW  22  20  91 N8        29.65S WCI  13
LONE ROCK      NOT AVBL
MINERAL POINT  LGT SNOW  27  25  93 N5        29.65R WCI  21
MADISON        FLURRIES  24  21  88 N16       29.63S WCI  11
MIDDLETON      CLOUDY    26  24  91 N7        29.64S WCI  19
WATERTOWN      CLOUDY    26  26 100 N9        29.59S WCI  16
MONROE         LGT SNOW  28  27  93 NW8       29.63R WCI  20
JANESVILLE     FLURRIES  30  28  93 N9        29.62S WCI  22
$$

WIZ051-052-058>065-066-070>072-250600-
SOUTHEAST WISCONSIN

CITY           SKY/WX    TMP DP  RH WIND       PRES   REMARKS
MILWAUKEE      CLOUDY    29  23  78 NW13      29.58S WCI  19
WAUKESHA       CLOUDY    27  23  86 NW12      29.59S WCI  16
MILWAUKEE/TIMM CLOUDY    28  23  80 NW7       29.59S WCI  21
RACINE         CLOUDY    30  25  81 NW12      29.60R WCI  20
KENOSHA        CLOUDY    30  25  81 NW9       29.58S WCI  22
FOND DU LAC    LGT SNOW  24  20  84 N14G24    29.61R FOG     WCI  12
SHEBOYGAN      CLOUDY    25  22  88 NW15      29.57R WCI  13
WEST BEND      CLOUDY    27  27 100 CALM      29.58R
JUNEAU         MIX PCPN  25  23  93 NW5       29.61R WCI  19
$$

LSZ147-162-250600-
LAKE SUPERIOR

STATION/POSITION TIME  TEMP    WIND        PRES    WAVE
                       AIR SEA DIR/SP/G            HT/PER
                 (UTC) (F)     (DEG/KT/KT) (MB)    (FT/S)
DEVILS ISLAND    0400   21      10/ 19/ 21 1011.9F
PORT WING        0430   21     340/ 19/ 26 1011.9S
SAXON HARBOR     0440   22     360/ 15/ 20 1009.8F
$$

LMZ867-665-643>646-250600-
LAKE MICHIGAN

STATION/POSITION TIME  TEMP    WIND        PRES    WAVE
                       AIR SEA DIR/SP/G            HT/PER
                 (UTC) (F)     (DEG/KT/KT) (MB)    (FT/S)
NORTHPORT PIER   0440   27     350/  4/  5 1000.3F
SISTER BAY       0350   27        CALM       N/A
KEWAUNEE LAKESHO 0430   25     330/ 11/ 19 1000.0F
SHEBOYGAN LAKESH 0400   26     320/  8/  9 1001.3S
PORT WASHINGTON  0440   27     320/  7/ 12 1002.7S
MILWAUKEE LAKESH 0430   29     330/  6/  8   N/A
KENOSHA   LAKESH 0400   31     310/  9/ 12 1002.0
$$

TC  - TEMPERATURE IN CELSIUS
VSB - VISIBILITY IN STATUTE MILES
WCI - WIND CHILL INDEX
HX  - HEAT INDEX





USA.gov is the U.S. government's official web portal to all federal, state and local government web resources and services.